Lapse_Rate
4.1 4.2 4.2 3.7 3.9 4.1 4.4 4.0 3.2 3.1 2.8 3.2 3.0 3.6 3.9 4.7 4.7 4.7 4.3 4.1 4.0 4.3 4.2 4.4 4.7 4.9 5.0 5.6 5.8 5.6 5.1 5.1 5.2 5.4 5.6 5.9 5.9 6.0 6.0 5.7 5.8 5.7 5.6
4.1 4.2 4.5 4.2 4.0 4.3 4.3 4.3 3.8 3.1 3.1 2.7 2.6 3.4 3.4 4.2 4.8 5.6 5.0 4.2 4.2 4.2 4.2 4.5 4.4 4.6 4.7 5.3 5.4 5.5 5.1 4.9 5.0 5.1 5.4 5.8 5.9 5.9 5.9 5.7 5.7 5.6 5.4
4.4 4.4 4.3 4.5 4.4 4.5 4.8 4.7 4.5 3.6 3.0 2.9 2.5 2.7 3.1 3.5 4.8 5.6 5.6 4.7 3.9 4.0 4.2 4.2 4.5 4.4 4.8 5.5 4.9 5.1 5.5 5.3 5.2 5.1 5.1 5.4 5.8 5.6 5.6 5.7 5.7 5.5 5.1
4.5 4.7 4.5 4.6 4.7 4.8 4.8 5.1 5.0 4.6 3.9 3.1 2.2 2.6 2.9 3.2 3.8 4.5 5.8 5.2 4.2 4.3 4.3 4.6 4.7 4.4 4.8 4.9 5.2 5.2 5.2 5.2 5.3 5.3 5.2 5.0 5.3 5.4 5.5 5.5 5.4 5.0 5.1
4.6 4.7 4.7 4.6 4.7 4.8 5.0 5.1 5.1 4.9 4.5 3.9 2.8 2.1 2.7 2.6 3.6 4.2 4.0 5.8 5.4 4.4 4.3 4.6 4.9 4.8 4.7 5.0 4.8 5.0 4.9 4.7 5.0 5.0 5.2 4.8 4.7 5.0 5.1 5.1 4.6 4.3 5.0
4.8 4.6 4.6 4.7 4.7 4.6 4.8 5.1 5.2 5.1 4.8 4.5 3.7 2.6 2.4 2.7 2.9 3.2 3.7 4.4 5.6 5.0 4.4 4.5 4.8 4.7 5.0 4.6 4.6 4.6 4.7 4.7 4.9 5.1 5.0 4.8 4.5 4.8 4.6 4.5 4.0 4.7 4.9
4.9 4.8 4.7 4.7 4.8 4.6 4.6 4.7 4.9 5.0 5.0 5.1 4.3 3.3 2.5 2.3 2.6 2.9 3.8 4.0 3.9 4.8 4.2 4.4 4.7 4.7 4.8 4.8 4.8 4.7 4.5 4.9 4.9 4.9 4.9 4.6 4.7 4.8 4.6 4.2 4.6 4.5 4.5
4.8 5.0 4.9 4.8 4.8 4.6 4.5 4.5 4.6 4.8 4.8 4.9 5.2 4.3 2.9 2.6 2.4 2.4 3.6 3.6 4.2 4.2 4.7 4.6 4.7 4.9 5.0 4.8 4.5 4.4 5.0 4.6 4.9 4.8 4.9 4.4 3.6 3.0 3.8 4.3 4.3 4.3 4.6
5.0 5.0 5.0 4.8 4.8 4.5 4.5 4.4 4.1 4.5 4.7 4.7 5.0 5.1 4.0 2.9 2.6 2.3 2.8 3.6 3.8 4.3 4.8 4.8 5.0 5.2 5.0 4.9 4.7 4.8 4.7 4.7 4.9 4.8 4.8 4.6 4.2 4.2 4.3 4.5 4.7 4.5 4.3
5.1 5.0 5.0 4.9 4.6 4.4 4.3 4.3 4.0 4.0 4.5 4.6 5.0 5.1 4.6 3.8 2.8 2.1 2.4 3.9 3.5 4.4 5.0 5.1 4.9 5.0 4.6 4.5 4.5 4.9 4.8 5.0 4.9 4.8 4.9 4.6 4.4 4.5 4.6 4.8 4.5 4.5 4.2
5.1 5.2 5.1 4.9 4.6 4.1 4.1 4.2 3.9 3.8 4.1 4.3 4.8 5.0 5.2 4.4 3.8 2.2 2.3 3.0 3.6 4.0 5.0 4.7 4.8 4.8 4.8 4.6 4.7 4.8 5.2 5.1 5.1 4.9 4.9 4.6 4.6 4.8 5.0 5.0 4.6 4.4 4.3
5.1 5.1 5.0 4.8 4.4 4.0 4.0 4.1 3.8 3.6 3.8 4.3 4.7 5.2 5.3 5.1 4.3 3.1 2.7 2.5 3.6 3.5 4.4 5.1 4.7 5.0 4.7 4.7 4.4 4.7 5.1 5.0 4.9 4.8 4.8 4.9 4.7 5.2 5.3 5.4 5.1 4.6 4.5
5.0 4.9 4.8 4.6 4.3 3.9 3.9 3.9 3.8 3.5 3.5 4.0 4.6 5.1 5.4 5.4 4.9 4.4 3.5 2.6 3.1 3.8 4.3 5.2 4.9 4.8 4.9 4.7 4.6 4.5 5.0 4.8 4.8 4.8 4.9 5.0 4.8 5.2 5.5 5.2 5.0 4.9 4.7
4.7 4.6 4.5 4.4 4.1 3.8 3.7 3.6 3.6 3.3 3.4 3.7 4.5 4.9 5.3 5.5 5.2 5.2 4.3 3.5 3.1 4.2 4.3 4.7 5.1 4.9 4.8 4.7 4.7 4.6 4.8 4.8 4.7 5.0 5.0 5.1 5.3 5.6 5.3 5.0 5.0 5.0 5.0
4.4 4.3 4.3 4.3 4.0 3.8 3.6 3.4 3.2 3.1 3.2 3.6 4.4 4.8 5.3 5.3 5.6 5.6 4.7 4.4 4.1 4.1 4.8 4.6 4.6 5.0 4.5 4.9 4.9 5.1 5.0 4.9 4.7 4.8 5.2 5.4 5.3 5.2 5.0 5.1 5.3 5.1 5.0
4.0 4.0 4.0 4.0 3.8 3.4 3.3 3.5 3.0 3.0 3.2 3.5 4.2 4.6 5.2 5.2 5.9 5.2 5.0 4.4 4.2 4.3 4.8 4.4 5.0 5.2 4.7 4.8 5.1 5.2 4.9 5.1 5.2 5.0 5.0 5.3 5.2 5.2 5.3 5.2 5.0 4.9 4.6
3.8 3.9 3.7 3.6 3.4 3.1 3.0 3.0 3.4 3.4 3.0 3.5 4.2 4.6 5.1 5.4 5.6 5.3 4.8 4.6 4.6 4.5 4.9 4.8 4.1 5.3 4.9 4.9 5.1 5.0 5.4 5.4 5.4 5.2 5.3 5.2 5.3 5.3 5.2 5.0 4.9 4.8 4.7
3.6 3.6 3.5 3.5 3.3 3.0 2.9 3.1 3.0 3.3 3.7 4.1 4.0 4.4 4.9 5.1 5.4 5.5 5.4 5.3 5.5 5.0 4.6 4.4 4.7 5.0 4.9 5.0 5.1 5.1 5.0 5.1 5.4 5.5 5.4 5.3 5.4 5.5 5.1 5.0 5.0 4.9 4.8
3.5 3.6 3.5 3.4 3.4 3.3 3.1 3.2 3.1 3.1 3.5 3.9 4.7 4.6 4.5 4.6 5.1 5.4 5.4 5.2 5.8 5.6 5.3 4.8 4.9 4.7 5.1 5.3 5.1 5.3 5.3 5.5 5.3 5.4 5.2 5.0 5.2 5.3 5.5 5.0 4.8 4.8 4.9
3.5 3.6 3.6 3.5 3.4 3.5 3.3 3.4 3.3 3.2 3.4 3.9 4.2 4.7 4.7 4.5 4.9 5.4 5.5 5.2 5.0 5.5 5.8 4.7 5.5 5.1 4.7 5.6 5.0 5.4 5.5 5.4 5.4 5.1 4.9 5.4 5.5 5.7 5.5 5.2 4.8 4.7 4.8
3.4 3.6 3.7 3.5 3.6 3.6 3.5 3.6 3.6 3.5 3.5 3.8 4.2 4.4 4.3 4.4 4.9 5.1 5.4 4.6 4.6 4.8 4.6 5.0 5.2 5.2 5.0 5.2 5.2 5.4 5.3 5.4 5.6 5.4 5.6 5.1 5.2 5.3 5.1 5.3 5.0 4.7 4.5
3.2 3.3 3.5 3.7 3.8 3.8 3.8 3.9 3.9 3.7 3.7 3.8 4.2 4.3 4.0 4.3 4.9 4.9 5.0 4.5 4.5 4.7 5.1 5.2 5.1 5.6 5.0 5.6 5.5 5.5 5.3 5.4 5.6 5.5 5.4 5.2 5.2 5.3 5.1 5.1 5.0 5.1 4.8
2.8 3.0 3.3 3.7 3.7 3.8 4.0 4.1 4.1 4.0 4.0 4.0 4.0 4.3 4.1 4.0 4.4 4.6 4.7 4.7 4.8 4.6 4.9 5.2 5.8 5.0 5.0 5.5 5.4 5.7 5.7 5.5 5.6 5.9 5.6 5.4 5.5 5.0 5.1 5.8 5.8 5.2 4.9
2.7 3.0 3.3 3.5 3.6 3.8 4.1 4.3 4.3 4.2 4.1 4.1 4.0 4.1 4.1 3.8 4.2 4.5 4.8 4.7 4.6 4.7 4.6 4.9 5.4 4.6 5.2 5.6 5.6 5.6 5.6 5.6 5.6 5.6 5.7 5.5 5.7 5.5 5.5 5.5 5.9 5.2 5.3
3.1 3.3 3.3 3.2 3.5 3.8 4.1 4.4 4.5 4.4 4.4 4.1 4.2 4.0 4.0 3.6 4.3 4.5 4.4 4.4 4.8 5.0 4.6 4.7 4.4 5.9 4.8 5.3 5.7 5.8 5.9 5.7 5.8 5.9 5.7 5.6 5.7 5.5 5.5 5.4 6.1 5.8 4.9
3.5 3.6 3.7 3.7 3.8 3.9 4.3 4.6 4.6 4.4 4.5 4.2 4.1 4.0 3.8 3.7 4.2 4.2 4.1 4.3 4.7 4.8 4.6 4.9 5.2 5.1 5.4 5.2 5.7 6.0 5.9 5.7 5.7 5.6 5.5 5.5 5.4 5.2 4.9 5.6 5.7 5.3 5.4
Wind_Speed
9 9 11 11 12 12 11 12 14 13 14 14 14 14 14 14 13 12 14 11 15 16 15 13 13 11 7 6 5 3 3 2 4 2 3 3 5 6 10 14 15 14 14
8 9 10 11 12 12 12 14 15 15 14 15 14 14 13 15 15 13 14 12 11 14 15 15 15 9 10 6 4 5 4 1 3 4 2 2 2 3 8 8 10 12 11
6 9 10 11 12 13 14 14 15 15 15 15 15 15 13 14 15 14 14 17 14 15 15 16 16 16 14 9 8 5 4 2 3 3 3 2 2 2 3 5 5 7 8
4 7 9 10 11 13 14 15 16 16 15 15 15 16 15 14 15 15 14 16 15 15 17 17 18 19 20 18 15 13 6 5 3 3 2 2 2 2 2 4 4 3 4
5 6 7 10 11 13 14 15 15 16 15 16 15 15 15 14 11 14 13 15 18 15 15 16 17 20 24 23 15 16 14 10 5 3 3 3 3 3 5 4 3 3 4
5 6 7 8 10 12 14 15 15 15 15 15 15 16 16 12 22 25 21 15 18 16 17 16 17 17 20 24 24 23 24 18 15 8 4 4 4 4 4 7 5 3 3
5 6 7 8 8 10 13 15 15 15 15 16 16 16 17 16 25 26 26 14 16 15 18 15 14 12 18 18 22 21 21 24 24 19 13 6 6 7 8 8 5 3 3
5 6 6 6 8 10 12 14 14 13 14 14 15 16 16 15 27 27 27 17 16 20 18 17 16 15 18 18 16 15 15 15 15 13 16 10 6 11 10 6 7 5 5
6 7 6 5 8 10 11 12 13 14 14 14 15 16 16 17 26 27 22 13 17 18 17 18 17 17 22 24 18 17 14 13 14 11 10 17 16 21 17 9 5 5 2
7 7 7 7 8 10 11 12 13 13 15 13 15 16 21 19 25 27 22 10 15 12 16 17 23 20 25 28 18 17 16 17 13 11 6 7 18 19 25 11 10 7 4
6 7 8 8 10 11 11 11 12 13 14 15 16 15 16 18 18 26 25 12 12 12 12 13 13 26 28 31 26 17 18 16 17 12 7 6 7 8 4 6 6 7 4
6 7 9 10 9 9 11 12 12 12 14 14 15 13 11 14 20 22 25 23 23 16 17 12 14 25 28 32 25 24 21 19 11 9 9 7 7 7 5 5 10 13 12
8 9 9 10 10 10 10 11 10 11 10 12 11 11 11 11 11 24 25 24 23 16 16 17 22 27 29 26 30 22 23 11 11 11 10 9 7 8 9 8 14 18 19
9 10 9 9 12 10 8 9 9 9 10 11 11 12 12 12 11 11 10 11 20 20 21 16 19 23 25 22 19 16 12 11 12 12 12 7 8 9 8 5 5 5 5
9 9 9 9 10 10 10 9 9 11 12 12 11 11 12 13 12 21 20 13 12 16 22 13 11 12 13 11 12 11 10 10 10 9 10 11 10 9 6 4 7 5 4
9 8 8 8 9 9 10 10 19 22 27 27 29 21 12 24 29 28 29 27 24 27 13 11 14 14 13 13 13 11 10 14 11 10 10 11 12 11 9 6 7 4 7
8 9 8 10 9 9 9 10 11 16 25 26 25 25 26 26 28 28 27 27 29 22 10 13 16 16 14 13 13 13 11 12 13 12 12 12 11 10 14 9 8 8 7
8 18 9 8 9 9 10 9 9 11 13 14 17 20 24 26 27 27 27 23 11 11 11 14 16 16 15 14 13 12 12 12 12 11 12 12 12 13 12 11 10 9 10
9 8 8 8 9 12 8 9 10 11 12 12 12 17 17 25 27 26 23 9 9 10 12 13 14 16 15 15 14 14 15 13 14 12 11 12 13 13 12 11 10 15 14
9 18 16 9 9 8 8 9 10 10 11 11 11 11 11 15 11 11 9 9 10 9 10 11 13 15 15 15 14 14 13 13 14 13 12 12 12 12 13 13 12 13 10
8 9 18 11 7 8 9 10 10 10 11 11 12 12 25 13 12 10 10 9 9 9 10 11 10 12 13 14 14 14 15 14 14 14 13 12 13 13 12 11 12 11 11
8 10 10 7 8 9 10 10 10 10 11 11 12 12 25 10 10 10 9 9 9 10 9 10 6 11 13 15 16 15 15 15 15 15 13 13 13 12 12 13 13 12 12
9 9 7 8 8 14 11 10 10 10 11 11 11 11 10 10 10 10 10 10 10 10 9 8 5 8 10 12 13 14 16 16 17 17 17 16 14 14 14 14 15 13 12
5 7 8 8 8 9 10 10 10 16 13 11 10 10 10 10 10 11 10 9 10 9 9 8 7 8 10 11 11 11 12 12 13 16 22 18 16 18 15 14 15 16 14
6 7 8 9 9 9 10 10 10 11 11 10 10 10 10 11 10 10 9 9 9 9 9 9 6 7 14 17 16 15 15 23 19 20 14 18 20 23 17 14 16 15 17
7 8 8 8 9 9 10 10 10 11 11 10 10 10 11 10 10 11 9 10 9 8 11 8 7 9 14 15 18 20 24 26 22 26 17 16 17 14 14 17 23 15 20
Wind_Direction
312 316 317 319 320 317 311 308 304 302 301 300 301 300 298 294 287 287 293 231 225 206 199 194 189 185 187 167 142 147 164 163 122 73 63 112 182 167 168 188 194 188 197
305 311 315 316 320 318 316 312 309 305 303 300 297 293 292 287 285 286 279 250 220 222 205 195 188 170 173 159 133 144 154 187 121 134 129 122 190 187 170 170 196 185 193
295 309 314 317 318 317 315 314 309 305 303 300 297 293 292 289 289 280 278 288 210 213 209 200 189 175 180 172 162 163 142 148 96 127 134 162 107 156 184 159 175 171 183
292 302 309 314 315 313 313 313 310 307 303 300 297 298 292 287 280 279 287 283 235 212 212 207 199 193 188 183 183 187 165 127 114 119 119 148 132 168 128 154 163 169 167
290 288 291 305 309 309 311 312 311 306 301 298 295 291 291 288 283 283 277 268 271 207 214 212 208 202 200 192 191 191 186 171 155 166 151 159 167 143 188 166 146 151 186
279 280 289 294 303 308 310 311 308 303 300 299 299 296 291 285 286 282 282 290 298 208 211 212 210 201 203 197 195 190 190 183 188 178 172 192 182 155 150 154 135 154 192
269 277 282 288 295 303 306 307 306 304 302 299 296 295 292 288 288 289 289 283 271 249 205 208 205 202 195 197 190 186 188 190 192 192 191 195 162 169 143 162 167 156 152
276 280 278 283 293 298 299 302 304 302 299 296 294 291 291 290 289 289 281 271 274 279 197 199 199 194 192 186 182 185 187 189 193 191 193 191 157 164 162 163 144 108 79
269 273 279 287 292 294 293 296 297 299 297 294 291 290 290 289 288 289 287 279 275 280 202 194 197 195 191 183 177 178 180 191 196 201 171 168 157 158 146 124 135 139 100
271 281 289 291 286 287 288 291 292 291 292 294 291 290 287 288 288 288 285 272 273 275 209 190 195 195 187 180 181 176 178 190 181 186 162 152 149 160 160 167 161 156 127
287 291 293 287 284 282 284 289 292 292 291 293 292 290 288 286 287 286 286 283 270 269 224 189 194 192 184 183 184 180 189 176 179 177 152 131 122 146 146 130 151 151 133
299 293 290 289 287 287 289 290 288 289 291 293 294 294 292 292 289 290 291 287 277 259 265 189 189 182 184 186 182 186 178 165 160 156 157 152 151 154 127 100 96 84 62
298 293 288 289 292 287 284 288 295 289 294 295 295 298 298 297 299 295 293 297 301 277 265 200 186 174 184 188 190 178 160 162 158 159 167 165 166 133 117 98 85 89 76
293 290 294 292 292 291 297 287 287 293 293 294 294 294 298 299 299 296 298 305 307 310 243 219 186 178 184 187 187 168 170 164 165 170 169 136 129 138 145 139 126 130 93
291 289 289 286 291 296 288 284 287 284 285 290 290 295 297 294 292 297 300 297 294 300 319 199 176 173 181 180 178 173 158 161 163 164 152 145 144 146 143 140 136 142 113
283 285 288 295 293 289 292 292 288 294 297 298 297 293 291 294 297 299 297 293 283 281 287 247 169 171 171 176 167 168 162 165 159 150 154 153 157 160 148 141 148 130 137
262 280 283 287 289 290 291 290 302 304 300 297 297 298 301 297 300 301 301 297 294 288 266 251 176 170 171 174 169 170 166 167 155 156 155 160 158 151 149 157 152 143 131
266 279 280 285 284 284 283 291 302 301 302 304 301 301 302 305 307 306 303 300 294 280 266 240 174 173 172 167 171 168 164 160 159 159 157 162 164 156 155 162 165 156 147
276 277 279 278 274 278 294 304 294 294 292 294 301 303 309 310 309 309 313 306 296 285 302 219 180 173 171 167 167 167 160 166 160 160 164 166 165 160 164 159 162 157 147
270 278 291 287 286 293 296 293 294 292 292 291 294 300 307 306 305 313 310 300 298 302 311 230 179 173 165 161 168 161 155 169 163 163 165 166 164 162 164 161 163 156 157
273 284 282 284 297 292 292 291 290 289 287 291 294 296 300 305 307 306 300 296 295 296 288 293 185 165 162 158 167 157 165 167 166 161 162 164 163 163 161 165 156 149 140
275 275 276 288 290 289 289 286 288 292 286 288 293 294 303 306 297 297 294 294 293 295 300 300 237 165 164 165 163 161 168 169 164 159 160 162 163 159 159 160 155 150 146
275 281 293 287 286 289 294 288 284 287 290 286 293 296 298 297 299 297 299 305 302 296 287 289 280 173 158 162 158 163 168 174 170 160 159 161 164 162 162 161 153 150 154
292 293 287 288 288 285 288 291 286 288 292 291 290 291 293 293 292 295 299 300 298 297 300 291 285 175 155 152 159 161 171 165 165 166 157 160 161 159 158 160 155 156 153
298 290 289 288 288 288 290 288 286 286 287 285 287 289 289 291 297 295 293 296 290 292 293 294 273 189 159 157 162 161 167 163 161 159 158 157 158 161 160 162 151 149 154
295 291 291 288 285 285 285 286 286 285 285 283 285 286 287 291 291 290 296 298 301 305 303 291 253 198 171 164 155 157 160 163 162 161 155 152 151 157 161 158 154 155 151